Preview of NWS' New Version of Forecast
This preview is not operational and should not be used for support decisions.

Regional Weather Roundup (RWR)

Issued by National Weather Service (NWS)

                            
000
ASUS44 KJAN 221810
RWRMS 

MISSISSIPPI HOURLY WEATHER ROUNDUP
NATIONAL WEATHER SERVICE JACKSON MS
100 PM CDT SUN SEP 22 2019

NOTE: "FAIR: INDICATES FEW OR NO CLOUDS BELOW 12,000 FEET WITH NO
SIGNIFICANT WEATHER AND/OR OBSTRUCTIONS TO VISIBILITY.

MSZ001>002-007>008-010>013-018>021-025>028-034>036-221900-
NORTHWEST MISSISSIPPI
  
CITY           SKY/WX    TMP DP  RH WIND       PRES   REMARKS
BATESVILLE     FAIR      90  63  40 S13       30.10F HX  90           
CLARKSDALE       N/A     90  68  48 S12       30.10F HX  93           
CLEVELAND      FAIR      89  65  44 S12G20    30.09F HX  90           
GREENWOOD      LGT RAIN  88  62  41 SE13      30.11F                  
6HR MIN TEMP:  69; 6HR MAX TEMP:  89; 6HR PCP: TRACE;                

GREENVILLE     FAIR      89  64  43 S10G21    30.08F HX  90           
6HR MIN TEMP:  71; 6HR MAX TEMP:  91;                                

OLIVE BRANCH   PTSUNNY   88  64  45 S16       30.09F                  
OXFORD         PTSUNNY   84  63  48 SW9G15    30.13F                  
TUNICA           N/A     86  64  48 S13G24    30.10F                  
WINONA         MOCLDY    86  62  43 S5        30.12F                  
$$

MSZ003>006-009-014>017-022>024-029>033-037>039-221900-
NORTHEAST MISSISSIPPI
  
CITY           SKY/WX    TMP DP  RH WIND       PRES   REMARKS
ABERDEEN       FAIR      88  70  55 SE10      30.14F HX  92           
COLUMBUS AFB   FAIR      87  60  40 SW7       30.13F                  
6HR MIN TEMP:  61; 6HR MAX TEMP:  88;                                

CORINTH        MOCLDY    84  63  48 S7        30.12F                  
GOLDN TRIANGLE FAIR      88  60  38 SE9       30.14F                  
STARKVILLE     MOCLDY    86  57  37 SE9       30.15F                  
TUPELO         PTSUNNY   89  59  36 SE12      30.12F                  
6HR MIN TEMP:  64; 6HR MAX TEMP:  90;                                

$$

MSZ040-058-221900-
CENTRAL MISSISSIPPI
  
CITY           SKY/WX    TMP DP  RH WIND       PRES   REMARKS
JACKSON INTL   FAIR      88  62  41 SE10      30.11F                  
6HR MIN TEMP:  73; 6HR MAX TEMP:  89;                                

JACKSON HAWKNS FAIR      89  64  43 S13       30.11F HX  90           
6HR MIN TEMP:  74; 6HR MAX TEMP:  90;                                

MADISON        FAIR      86  63  45 S7        30.12F                  
MERIDIAN KEY   PTSUNNY   88  61  40 SE9       30.13F                  
6HR MIN TEMP:  64; 6HR MAX TEMP:  88;                                

MERIDIAN NAS   PTSUNNY   87  58  37 E10       30.14F                  
6HR MIN TEMP:  60; 6HR MAX TEMP:  89;                                

RAYMOND        FAIR      90  66  45 S12G17    30.10F HX  92           
VICKSBURG VKS  CLEAR     90  64  43 VRB6      30.09F HX  91           
$$

MSZ059>079-221900-
SOUTH MISSISSIPPI
  
CITY           SKY/WX    TMP DP  RH WIND       PRES   REMARKS
BROOKHAVEN     MOCLDY    86  66  51 NE6G12    30.13F                  
HATTIESBURG    PTSUNNY   89  66  46 SE10      30.12F HX  91           
6HR MIN TEMP:  65; 6HR MAX TEMP:  89;                                

LAUREL         MOCLDY    88  65  46 S7        30.12F HX  90           
MCCOMB         FAIR      88  67  49 VRB7      30.11F HX  91           
6HR MIN TEMP:  69; 6HR MAX TEMP:  88;                                

NATCHEZ        FAIR      87  65  47 SE10      30.10F                  
6HR MIN TEMP:  71; 6HR MAX TEMP:  88;                                

PINE BELT      PTSUNNY   87  69  54 SE9       30.13F HX  91           
6HR MIN TEMP:  64; 6HR MAX TEMP:  87;                                

$$

MSZ080>082-221900-
COASTAL MISSISSIPPI
  
CITY           SKY/WX    TMP DP  RH WIND       PRES   REMARKS
BAY ST LOUIS   PTSUNNY   86  72  62 SE12G17   30.10F HX  92           
BILOXI         NOT AVBL                                               
PASCAGOULA     CLOUDY    88  66  48 E12       30.10F HX  90           
6HR MIN TEMP:  68; 6HR MAX TEMP:  89;                                

GULFPORT       PTSUNNY   87  68  52 SE17G23   30.10F HX  90           
6HR MIN TEMP:  70; 6HR MAX TEMP:  88;                                

$$

LAZ007>009-015>016-023>026-221900-
NORTHEAST LOUISIANA
  
CITY           SKY/WX    TMP DP  RH WIND       PRES   REMARKS
BASTROP        FAIR      89  65  44 SW8       30.08F HX  91           
TALLULAH/VBURG FAIR      90  65  43 S8        30.09F HX  92           
6HR MIN TEMP:  73; 6HR MAX TEMP:  92;                                

VIDALIA        FAIR      89  67  48 SE7       30.08F HX  92           
$$